Location: Newark
(46.7000°N, 60.6000°W)
Time: 05:26:49
(UTC+00:00)

Transit 2A Rocket - Pass Details

Date: 31 October 2020
Orbit: 588 x 914 km, 66.7° (Epoch: 27 November)

Event Time Altitude Azimuth Distance (km) Brightness Sun altitude
Rises 13:39:01 0° 226° (SW) 3,538 8.6 22.6°
Reaches altitude 10° 13:41:37 10° 231° (SW) 2,595 7.9 22.8°
Maximum altitude 13:47:36 56° 309° (NW) 1,053 5.7 23.4°
Drops below altitude 10° 13:53:20 10° 28° (NNE) 2,493 7.4 23.9°
Sets 13:55:48 0° 32° (NNE) 3,389 8.1 24.1°
